Location: Praha
(50.0830°N, 14.4670°E)
Time: 16:39:13
(UTC+02:00)

ISS - Pass Details

Date: 20 May 2020
Orbit: 417 x 420 km, 51.6° (Epoch: 25 May)

Event Time Altitude Azimuth Distance (km) Brightness Sun altitude
Rises 21:28:02 0° 243° (WSW) 2,357 0.4 -5.8°
Reaches altitude 10° 21:30:07 10° 241° (WSW) 1,496 -0.7 -6.0°
Maximum altitude 21:33:27 67° 159° (SSE) 457 -3.8 -6.4°
Drops below altitude 10° 21:36:49 10° 75° (ENE) 1,503 -1.3 -6.8°
Sets 21:38:55 0° 73° (ENE) 2,370 -0.2 -7.0°
